Weather History for CYQQ - March, 2013

Change the Weather History Date:

Wednesday, March 13, 2013

  Actual Average Record
Temperature  
Mean Temperature 47 °F -  
Max Temperature 52 °F 51 °F 57 °F (2003)
Min Temperature 42 °F 37 °F 28 °F (2006)
Degree Days  
Heating Degree Days 18    
Moisture  
Dew Point 47 °F    
Average Humidity 92    
Maximum Humidity 100    
Minimum Humidity 78    
Precipitation  
Precipitation 0.08 in 0.12 in - ()
Sea Level Pressure  
Sea Level Pressure 30.01 in    
Wind  
Wind Speed 14 mph ()    
Max Wind Speed 24 mph    
Max Gust Speed 31 mph    
Visibility 15.2 miles    
Events Rain    
Averages and records for this station are not official NWS values.
T = Trace of Precipitation, MM = Missing Value Source: Averaged Metar Reports

Daily Weather History Graph

Daily Weather History Graph

Search for Another Location

Airport or City:

Trip Planner

Search our weather history database for the weather conditions in past years. The results will help you decide how hot, cold, wet, or windy it might be!

Date:

Astronomy

Mar. 13, 2013 Rise Set
Actual Time 7:36 AM PDT 7:22 PM PDT
Civil Twilight 7:04 AM PDT 7:54 PM PDT
Nautical Twilight 6:27 AM PDT 8:31 PM PDT
Astronomical Twilight 5:49 AM PDT 9:09 PM PDT
Moon 8:04 AM PDT (3/13) 10:03 PM PDT (3/13)
Length of Visible Light 12h 49m
Length of Day
11h 45m
Waxing Crescent, 4% of the Moon is Illuminated
Mar 13
Waxing Crescent
Mar 19
First Quarter
Mar 27
Full
Apr 2
Last Quarter
Apr 10
New

Hourly Weather History & Observations

Time (PDT) Temp. Dew Point Humidity Pressure Visibility Wind Dir Wind Speed Gust Speed Precip Events Conditions
12:00 AM 48.2 °F 46.4 °F 93% 29.91 in 20.0 mi SE 16.1 mph 21.9 mph N/A Rain Light Rain
1:00 AM 50.0 °F 46.4 °F 87% 29.94 in 20.0 mi SSE 15.0 mph - N/A   Scattered Clouds
2:00 AM 50.0 °F 44.6 °F 82% 29.95 in 20.0 mi SSE 15.0 mph - N/A   Partly Cloudy
3:00 AM 48.2 °F 44.6 °F 87% 29.98 in 20.0 mi South 5.8 mph - N/A   Partly Cloudy
4:00 AM 50.0 °F 44.6 °F 82% 29.98 in 20.0 mi SE 12.7 mph - N/A   Partly Cloudy
5:00 AM 50 °F 45 °F 78% 29.98 in 19 mi SSE 15.0 mph - -   Partly Cloudy
5:00 AM 50.0 °F 44.6 °F 82% 29.98 in 20.0 mi SSE 15.0 mph - N/A   Partly Cloudy
6:00 AM 50.0 °F 46.4 °F 87% 30.01 in 20.0 mi SSE 17.3 mph 24.2 mph N/A   Partly Cloudy
7:00 AM 48.2 °F 46.4 °F 93% 30.00 in 20.0 mi SE 11.5 mph 17.3 mph N/A   Mostly Cloudy
8:00 AM 50.0 °F 44.6 °F 82% 30.00 in 20.0 mi SE 16.1 mph - N/A   Mostly Cloudy
8:45 AM - - N/A% - 15.0 mi South 11.5 mph - N/A Rain Light Rain
9:00 AM 50.0 °F 46.4 °F 87% 30.01 in 15.0 mi SSE 17.3 mph - N/A Rain Light Rain
9:23 AM - - N/A% - 15.0 mi SE 15.0 mph - N/A   Mostly Cloudy
10:00 AM 48.2 °F 46.4 °F 93% 30.03 in 15.0 mi SE 20.7 mph - N/A   Mostly Cloudy
11:00 AM 49 °F 47 °F 90% 30.04 in 15 mi SE 18.4 mph - -   Partly Cloudy
11:00 AM 48.2 °F 46.4 °F 93% 30.04 in 15.0 mi SE 18.4 mph - N/A   Overcast
12:00 PM 50.0 °F 48.2 °F 94% 30.06 in 15.0 mi ESE 15.0 mph - N/A   Mostly Cloudy
1:00 PM 51.8 °F 48.2 °F 88% 30.06 in 15.0 mi SE 18.4 mph 27.6 mph N/A   Mostly Cloudy
2:00 PM 50.0 °F 48.2 °F 94% 30.06 in 15.0 mi SE 24.2 mph 31.1 mph N/A   Overcast
3:00 PM 50.0 °F 48.2 °F 94% 30.06 in 15.0 mi SE 20.7 mph 27.6 mph N/A   Overcast
4:00 PM 50.0 °F 48.2 °F 94% 30.05 in 15.0 mi SE 21.9 mph 27.6 mph N/A   Overcast
5:00 PM 49 °F 47 °F 92% 30.04 in 15 mi SE 19.6 mph - -   Overcast
5:00 PM 48.2 °F 48.2 °F 100% 30.04 in 15.0 mi SE 20.7 mph 27.6 mph N/A   Overcast
5:41 PM - - N/A% - 15.0 mi SE 16.1 mph 24.2 mph N/A Rain Light Rain
6:00 PM 48.2 °F 48.2 °F 100% 30.04 in 15.0 mi SE 12.7 mph 21.9 mph N/A Rain Light Rain
7:00 PM 48.2 °F 48.2 °F 100% 30.02 in 10.0 mi SE 15.0 mph - N/A Rain Light Rain
7:41 PM - - N/A% - 10.0 mi SE 17.3 mph - N/A Rain Light Rain
8:00 PM 48.2 °F 48.2 °F 100% 30.02 in 10.0 mi SE 16.1 mph - N/A Rain Light Rain
9:00 PM 48.2 °F 48.2 °F 100% 30.01 in 10.0 mi SE 15.0 mph - N/A Rain Light Rain
9:29 PM - - N/A% - 10.0 mi SSE 12.7 mph - N/A Rain Light Rain
10:00 PM 48.2 °F 48.2 °F 100% 30.00 in 8.0 mi South 11.5 mph 17.3 mph N/A Rain Light Rain
11:00 PM 47 °F 47 °F 100% 29.99 in 10 mi SE 17.3 mph - - Rain Light Rain
11:00 PM 48.2 °F 48.2 °F 100% 29.99 in 10.0 mi SE 15.0 mph 21.9 mph N/A Rain Light Rain